Tracking 19832 objects as of 25-Aug-2019
HD Live streaming from Space Station
objects crossing your sky now

COSMOS 1651 (GLONASS)

Track COSMOS 1651 (GLONASS) now!
COSMOS 1651 (GLONASS) is classified as:


NORAD ID: 15698
Int'l Code: 1985-037B
Perigee: 19,098.6 km
Apogee: 19,171.6 km
Inclination: 64.1 °
Period: 675.7 minutes
Semi major axis: 25506 km
RCS: 1.6087 m2 (large)
Launch date: May 17, 1985
Source: Commonwealth of Independent States (former USSR) (CIS)
Launch site: TYURATAM MISSILE AND SPACE COMPLEX (TTMTR)
aabbcc
Your satellite tracking list
Your tracking list is empty




NASA's NSSDC Master Catalog

Two Line Element Set (TLE):
1 15698U 85037B   19237.29495829  .00000001  00000-0  00000+0 0  9992
2 15698  64.1089 158.4303 0014303  14.7045 142.4033  2.13125884266763
Source of the keplerian elements: AFSPC